[[{"header":{"parameterUnit":"m.s-1","parameterCategory":1,"la1":30.2991,"la2":30.254,"lo1":-89.0895,"lo2":-89.0444,"dy":0.0017,"dx":0.0017,"nx":28,"ny":28,"refTime":"2025-12-29T09:00:00:Z","depth":0,"parameterNumber":2,"parameterNumberName":"U-component_of_WINDS"},"data":[0,0,0,0,0,0,0,0,0,0,0,0,0,0,0,0,0,0,0,0,0,0,0,0,0,0,0,0,0,0,0,0,0,0,0,0,0,0,0,0,0,0,0,0,0,0,0,0,0,0,0,0,0,0,0,0,0,0,2.6686,2.6686,0,2.6729,2.673,2.673,2.6683,2.6681,2.668,2.6678,2.6725,2.6728,2.6731,0,0,0,0,0,0,0,0,0,0,0,0,0,2.6565,2.6568,2.6686,2.6686,2.6687,2.6729,2.673,2.673,2.6684,2.6681,2.6679,2.6677,2.6724,2.6728,2.6731,0,0,0,0,0,0,0,0,0,0,0,0,0,2.6614,2.6569,2.6686,2.6669,2.6667,2.6729,2.673,2.673,2.6684,2.6681,2.6679,2.6676,2.6723,2.6727,2.6732,2.6813,0,0,2.6745,2.6747,0,0,0,0,0,0,0,0,2.6611,2.6619,2.6671,2.667,2.6669,2.6698,2.6704,2.6758,2.6685,2.6678,2.6678,2.6675,2.6718,2.6723,2.6737,2.6815,2.6817,2.6746,2.6748,2.675,2.6751,0,0,0,0,0,0,0,2.6608,2.6617,2.6703,2.6671,2.667,2.666,2.6664,2.6714,2.6713,2.6678,2.6675,2.668,2.6717,2.6733,2.6738,2.6818,2.6745,2.6749,2.6752,2.6754,2.6966,2.6969,0,0,0,0,0,0,2.6606,2.6614,2.6702,2.6704,2.6633,2.6664,2.6668,2.6691,2.6712,2.6713,2.6683,2.6678,2.6727,2.6733,2.6739,2.6837,2.675,2.6754,2.6757,2.6963,2.6967,2.697,0,0,0,0,0,0,2.6604,2.6615,2.67,2.6658,2.6668,2.6669,2.6695,2.6694,2.6709,2.6716,2.6715,2.6699,2.6725,2.6733,2.6795,2.6838,2.6756,2.676,2.6959,2.6964,2.6968,2.7032,0,0,0,0,0,0,2.6601,2.6614,2.6644,2.6659,2.6671,2.6754,2.6698,2.6696,2.6717,2.6711,2.6731,2.6731,2.6724,2.6789,2.6799,2.6842,2.6764,2.6956,2.6961,2.6967,2.7026,2.7038,2.7048,0,0,0,0,0,2.6596,2.6661,2.6646,2.6657,2.6708,2.6757,2.6763,2.6752,2.672,2.6751,2.6755,2.6731,2.6831,2.6795,2.6807,2.6852,2.6953,2.696,2.6966,2.7021,2.7035,2.7048,0,0,0,0,0,0,2.6651,2.6662,2.6646,2.6717,2.6736,2.6748,2.6787,2.6768,2.6797,2.6791,2.6777,2.6781,2.6847,2.6856,2.6816,2.6932,2.6887,2.6896,2.6924,2.6938,2.6949,2.6946,2.6767,0,0,0,0,0,2.6672,2.6709,2.6717,2.6779,2.6789,2.6787,2.6807,2.6797,2.6817,2.6825,2.6833,2.6854,2.689,2.6915,2.6948,2.7027,2.7031,2.7063,2.7074,2.7083,2.7092,2.7135,2.715,2.6992,2.6992,2.6992,0,0,2.6714,2.6725,2.6749,2.679,2.6804,2.6844,2.6794,2.6838,2.6868,2.6832,2.689,2.6898,2.692,2.6991,2.7022,2.7,2.7136,2.7092,2.7099,2.7103,2.7143,2.7158,2.7172,2.6996,2.6996,2.6995,0,0,2.6812,2.6823,2.6876,2.6891,2.6912,2.691,2.6923,2.6938,2.6942,2.7,2.6974,2.701,2.7072,2.709,2.7107,2.7212,2.7191,2.7223,2.7282,2.7323,2.7336,2.7347,2.7385,2.7399,2.7231,2.7232,2.7232,0,2.6862,2.692,2.6906,2.6953,2.6972,2.694,2.6994,2.701,2.7041,2.7056,2.703,2.7108,2.7121,2.7195,2.7221,2.7235,2.725,2.7221,2.7335,2.7346,2.7356,2.7392,2.7407,2.7235,2.7235,2.7235,2.7234,0,2.6982,2.7023,2.7063,2.7094,2.7118,2.7168,2.7162,2.7188,2.7176,2.7177,2.7238,2.7252,2.7288,2.7305,2.7294,2.7379,2.7364,2.7337,2.7291,2.7375,2.7409,2.7423,2.7241,2.724,2.7238,2.7237,0,0,2.7116,2.7138,2.7153,2.7167,2.7188,2.722,2.7269,2.7304,2.7327,2.735,2.7391,2.7445,2.742,2.744,2.743,2.7467,2.755,2.7435,2.7436,2.7457,2.7645,2.7666,2.7683,2.7536,2.7539,2.7541,2.7644,0,2.7214,2.7299,2.7288,2.7369,2.7408,2.7378,2.7421,2.7439,2.7442,2.7476,2.7478,2.7517,2.7481,2.7493,2.7528,2.7533,2.7588,2.7525,2.7576,2.7578,2.7572,2.77,2.7722,2.7819,2.7657,2.7659,2.7661,0,2.7341,2.7368,2.7453,2.7469,2.7485,2.7523,2.7555,2.7587,2.7607,2.7607,2.7629,2.7613,2.7663,2.7616,2.7686,2.7643,2.7663,2.7669,2.7673,2.7678,2.7625,2.7709,2.7849,2.7864,2.7682,2.768,2.7678,0,2.7431,2.7489,2.7547,2.756,2.758,2.7608,2.7617,2.7635,2.7657,2.7685,2.7699,2.7733,2.7751,2.7778,2.7772,2.7738,2.7844,2.7796,2.7846,2.7846,2.787,2.7869,2.8016,2.7882,2.7882,2.7881,2.7881,0,2.7543,2.7596,2.7588,2.7624,2.7684,2.7671,2.773,2.7736,2.7753,2.779,2.7767,2.7803,2.7792,2.7828,2.7824,2.7883,2.7892,2.7893,2.7892,2.7896,2.7896,2.7909,2.7903,2.7885,2.7884,2.7884,2.7883,0,2.7653,2.765,2.7712,2.7726,2.773,2.7774,2.7786,2.782,2.7821,2.7869,2.7879,2.7881,2.7922,2.7918,2.7965,2.7962,2.8035,2.8025,2.8028,2.8026,2.8077,2.8072,2.8238,2.826,2.8111,2.8113,2.8114,0,2.7725,2.7766,2.7784,2.7807,2.7819,2.7856,2.7878,2.7868,2.7892,2.7919,2.795,2.7989,2.802,2.8087,2.8092,2.8128,2.8119,2.8175,2.8125,2.8128,2.8121,2.8119,2.8124,2.8185,2.8187,2.8188,2.8189,0,2.7854,2.785,2.7882,2.7915,2.7942,2.7967,2.799,2.801,2.8002,2.803,2.8072,2.8095,2.8142,2.8182,2.8216,2.8226,2.8207,2.8205,2.8219,2.8224,2.8224,2.8225,2.8056,2.8202,2.82,2.8199,2.8199,2.8198,2.7948,2.7983,2.8001,2.8038,2.8054,2.8076,2.8109,2.8114,2.8148,2.8185,2.8177,2.8224,2.8244,2.8288,2.8302,2.8339,2.8319,2.8338,2.8344,2.8349,2.8355,2.8218,2.8345,2.8345,2.8344,2.8344,2.8344,0,2.8075,2.8086,2.812,2.8153,2.8182,2.8161,2.8185,2.8211,2.8253,2.8273,2.8303,2.8351,2.8389,2.8398,2.8435,2.8463,2.8455,2.8473,2.8471,2.8474,2.837,2.8355,2.8479,2.8479,2.8479,2.8479,2.8479,2.8479,2.8145,2.8204,2.8202,2.8269,2.8279,2.8324,2.834,2.836,2.8377,2.8431,2.8462,2.8467,2.8484,2.8521,2.8556,2.8557,2.8572,2.8594,2.8592,2.8495,2.8482,2.8469,2.8455,2.8597,2.8597,2.8693,2.8694,2.8695]},{"header":{"parameterUnit":"m.s-1","parameterCategory":1,"la1":30.2991,"la2":30.254,"lo1":-89.0895,"lo2":-89.0444,"dy":0.0017,"dx":0.0017,"nx":28,"ny":28,"refTime":"2025-12-29T09:00:00:Z","depth":0,"parameterNumber":3,"parameterNumberName":"V-component_of_WINDS"},"data":[0,0,0,0,0,0,0,0,0,0,0,0,0,0,0,0,0,0,0,0,0,0,0,0,0,0,0,0,0,0,0,0,0,0,0,0,0,0,0,0,0,0,0,0,0,0,0,0,0,0,0,0,0,0,0,0,0,0,1.5871,1.5872,0,1.5977,1.5978,1.5979,1.5996,1.5995,1.5994,1.5993,1.6102,1.6105,1.6109,0,0,0,0,0,0,0,0,0,0,0,0,0,1.5681,1.5684,1.587,1.5872,1.5873,1.5977,1.5978,1.598,1.5996,1.5995,1.5994,1.5993,1.61,1.6105,1.6109,0,0,0,0,0,0,0,0,0,0,0,0,0,1.5773,1.5686,1.587,1.5894,1.5897,1.5976,1.5978,1.598,1.5996,1.5995,1.5993,1.5992,1.6099,1.6105,1.611,1.6173,0,0,1.6127,1.613,0,0,0,0,0,0,0,0,1.5768,1.578,1.5889,1.5892,1.5896,1.5972,1.5951,1.6045,1.5997,1.5958,1.5993,1.5991,1.606,1.6068,1.6091,1.6179,1.6183,1.6128,1.6131,1.6134,1.6135,0,0,0,0,0,0,0,1.5761,1.5775,1.5912,1.589,1.5895,1.5899,1.591,1.5969,1.6016,1.5962,1.5963,1.5975,1.6061,1.6086,1.6094,1.6185,1.6128,1.6133,1.6136,1.6138,1.633,1.6331,0,0,0,0,0,0,1.5751,1.577,1.5909,1.5916,1.5827,1.5903,1.5916,1.5949,1.6015,1.6024,1.5977,1.5976,1.6077,1.6087,1.6098,1.6177,1.6134,1.6139,1.6142,1.6328,1.633,1.6332,0,0,0,0,0,0,1.5747,1.5763,1.5905,1.5843,1.5862,1.5908,1.5944,1.5952,1.5976,1.6026,1.6035,1.5993,1.6076,1.609,1.6155,1.6181,1.6142,1.6147,1.6326,1.6328,1.6331,1.6335,0,0,0,0,0,0,1.5741,1.5761,1.5786,1.5844,1.5865,1.596,1.5946,1.5955,1.5986,1.5986,1.6044,1.6053,1.6076,1.6146,1.616,1.6188,1.6151,1.6324,1.6327,1.633,1.6333,1.6338,1.6342,0,0,0,0,0,1.5734,1.5783,1.5787,1.5804,1.5897,1.5961,1.5973,1.6,1.5988,1.6013,1.6045,1.6051,1.6176,1.6153,1.6169,1.6199,1.6322,1.6326,1.633,1.6331,1.6337,1.6342,0,0,0,0,0,0,1.5727,1.5791,1.5796,1.5865,1.5908,1.5964,1.5997,1.6005,1.6051,1.605,1.608,1.6093,1.6156,1.6184,1.6157,1.6264,1.6248,1.6255,1.6244,1.6249,1.6254,1.6246,1.6156,0,0,0,0,0,1.5734,1.5781,1.5834,1.589,1.5911,1.595,1.5979,1.5995,1.6041,1.6059,1.6096,1.6139,1.6188,1.622,1.6268,1.6337,1.635,1.6365,1.6369,1.6373,1.6379,1.6418,1.6425,1.6344,1.6344,1.6344,0,0,1.5747,1.5788,1.5816,1.5889,1.5924,1.5972,1.5965,1.6016,1.6053,1.6067,1.613,1.6159,1.6209,1.6276,1.6308,1.6301,1.6404,1.6378,1.638,1.6384,1.6422,1.643,1.6437,1.6347,1.6346,1.6346,0,0,1.5798,1.5833,1.5883,1.5918,1.5971,1.5997,1.6009,1.6064,1.6084,1.6148,1.616,1.6203,1.6287,1.6323,1.6352,1.6415,1.6422,1.643,1.6453,1.649,1.6497,1.6502,1.6526,1.6534,1.6435,1.6435,1.6435,0,1.5808,1.5882,1.5908,1.5959,1.5991,1.6006,1.6058,1.609,1.6156,1.6178,1.6169,1.6275,1.631,1.6386,1.6401,1.6424,1.6439,1.6424,1.6493,1.65,1.6505,1.6528,1.6537,1.6436,1.6436,1.6436,1.6436,0,1.5892,1.5943,1.5977,1.6041,1.6076,1.6127,1.6162,1.6194,1.6208,1.6234,1.6299,1.6342,1.6399,1.6418,1.6431,1.6496,1.649,1.6487,1.6472,1.6513,1.6535,1.6544,1.6437,1.6437,1.6437,1.6436,0,0,1.5942,1.6019,1.6031,1.6061,1.612,1.616,1.6211,1.6267,1.6295,1.6339,1.6384,1.6454,1.6452,1.6485,1.6502,1.6535,1.6583,1.6528,1.653,1.6538,1.6658,1.666,1.667,1.6587,1.6589,1.6591,1.6654,0,1.5999,1.6092,1.6118,1.6196,1.6244,1.6258,1.6303,1.6344,1.637,1.6414,1.6443,1.6493,1.6485,1.6505,1.6538,1.657,1.6608,1.6566,1.6629,1.6631,1.6617,1.6681,1.6684,1.6742,1.6662,1.6664,1.6665,0,1.6079,1.6126,1.621,1.6263,1.6284,1.6324,1.6377,1.6419,1.6466,1.6482,1.6519,1.6534,1.6588,1.6569,1.6644,1.6615,1.6643,1.6662,1.6665,1.6673,1.6651,1.6692,1.6761,1.677,1.6678,1.6677,1.6676,0,1.6108,1.6192,1.6253,1.6277,1.6341,1.6369,1.6396,1.6442,1.6474,1.652,1.6541,1.6593,1.6622,1.6662,1.669,1.6673,1.6763,1.6746,1.6779,1.6778,1.6798,1.6797,1.6874,1.6814,1.6814,1.6813,1.6813,0,1.6171,1.6221,1.6266,1.6304,1.6361,1.639,1.6445,1.6474,1.6514,1.6557,1.6572,1.6613,1.6647,1.6691,1.6713,1.6773,1.6785,1.6801,1.6806,1.68,1.6798,1.6819,1.6816,1.6816,1.6815,1.6815,1.6814,0,1.6213,1.6245,1.6313,1.6367,1.6382,1.6422,1.6469,1.6506,1.6532,1.6587,1.6601,1.6642,1.6696,1.6727,1.6795,1.681,1.6876,1.6879,1.686,1.6863,1.6894,1.6891,1.6988,1.7002,1.6932,1.6932,1.6933,0,1.6251,1.6291,1.635,1.638,1.6408,1.6457,1.6489,1.6518,1.6552,1.6609,1.6639,1.6693,1.6739,1.6823,1.6859,1.6911,1.6916,1.6947,1.6924,1.6917,1.6918,1.6916,1.692,1.6951,1.6951,1.6952,1.6952,0,1.6316,1.633,1.6377,1.643,1.6468,1.6511,1.6554,1.6577,1.6614,1.665,1.6706,1.6741,1.681,1.6864,1.6919,1.6947,1.6956,1.6959,1.6969,1.6964,1.6952,1.696,1.6872,1.6957,1.6956,1.6956,1.6956,1.6956,1.6358,1.6394,1.6441,1.6493,1.6528,1.6568,1.6605,1.6636,1.6683,1.6742,1.6756,1.6814,1.686,1.6934,1.6964,1.701,1.7005,1.702,1.7024,1.7027,1.7028,1.6944,1.702,1.702,1.7019,1.7019,1.7019,0,1.6424,1.6456,1.6503,1.6562,1.6603,1.6608,1.6655,1.6689,1.674,1.6782,1.6826,1.6889,1.6942,1.6982,1.7036,1.7065,1.707,1.7078,1.7077,1.7083,1.7029,1.7015,1.7073,1.7073,1.7073,1.7073,1.7073,1.7073,1.6464,1.6525,1.6545,1.6623,1.6654,1.6712,1.6738,1.6775,1.6809,1.6879,1.6923,1.6948,1.699,1.7047,1.7095,1.7105,1.7125,1.7132,1.7143,1.7093,1.7087,1.7081,1.7069,1.7136,1.7136,1.7194,1.7194,1.7195]}]]